Погода в Олешках

Украина / Херсонская область     46°36′50″N   32°43′04″E
темп.,
°C
ветер,
м/с
пор.,
м/с
влажн.,
%
обл.,
%
осадки,
мм/ч
давл.,
гПа
погр.,
м
17 мая, вт
вт1700:00+16з3760100 0.0 1018205
03:00+16з3858100 0.0 1017273
06:00+15з3867100 0.0 1016251
09:00+18зсз345869 0.1 1016574
12:00+22сз474174 0.0 10161770
15:00+21з664462 0.0 10151170
18:00+21з464783 0.0 1013719
21:00+17зюз3569100 0.1 1013151
18 мая, ср
ср1800:00+16зюз2476100 0.3 1012123
03:00+13с7992100 3.9 1010374
06:00+12с71194100 10.0 1009522
09:00+10с71180100 13.2 1012842
12:00+14с7944100 0.3 10131850
15:00+16ссз10936100 0.3 10142479
18:00+13ссз9104939 0.0 10151934
21:00+9ссз812735 0.0 1019625
19 мая, чт
чт1900:00+9сз61082100 0.0 1020496
03:00+10ссз7128570 0.4 1021610
06:00+8ссз613875 0.1 1022431
09:00+13ссз79655 0.1 1024708
12:00+18ссз784541 0.1 10242103
15:00+19ссз783636 0.1 10242405
18:00+19с683814 0.0 10242297
21:00+15ссв125352 0.0 102612
20 мая, пт
пт2000:00+14зюз225767 0.0 102612
03:00+12сз22655 0.0 102618
06:00+12сз22700 0.0 102627
09:00+17зсз33515 0.0 1026537
12:00+21з55396 0.0 10261673
15:00+22з653787 0.0 10241561
18:00+21зюз5542100 0.0 1023947
21:00+16юз5964100 0.0 1023250
21 мая, сб
сб2100:00+14юз5117191 0.0 1021279
03:00+13юз512785 0.0 1019295
06:00+13юз61380100 0.0 1018336
09:00+19юз912495 0.0 1017709
12:00+22юз1012412 0.0 1016971
15:00+21юз10134114 0.0 1014932
18:00+19юз913490 0.0 1013574
21:00+15юз7146614 0.0 1012405